DLH77M EDDM-LEBL

Flight info

Callsign DLH77M
Flight time N/A
Altitude 37000
Route TURBU6E/08R TURBU Y107 TOBSO DCT BAKOR DCT GEKBA DCT VAMTU DCT KOLON DCT GANGU DCT PADKO DCT DIVKO DCT NILDU N975 BISBA
Aircraft A21N/M-SDE2E3FGHIRWXY/LB1

Departure

Time 2026-05-06 14:06
Airport Munich Airport (EDDM)

Arrival

Time N/A
Airport Josep Tarradellas Barcelona-El Prat Airport (LEBL)
Time Latitude Longitude Altitude Speed Heading
2026-05-06 12:55 48.35379 11.80010 1473 ft 0 kts 263°
2026-05-06 13:50 48.35380 11.80014 1473 ft 2 kts 264°
2026-05-06 13:50 48.35382 11.80036 1473 ft 2 kts 263°
2026-05-06 13:51 48.35383 11.80058 1473 ft 2 kts 264°
2026-05-06 13:51 48.35385 11.80080 1473 ft 2 kts 263°
2026-05-06 13:51 48.35389 11.80102 1473 ft 2 kts 225°
2026-05-06 13:51 48.35401 11.80113 1473 ft 2 kts 187°
2026-05-06 13:52 48.35416 11.80109 1473 ft 2 kts 166°
2026-05-06 13:52 48.35426 11.80107 1472 ft 0 kts 178°
2026-05-06 13:55 48.35421 11.80108 1472 ft 4 kts 174°
2026-05-06 13:55 48.35376 11.80121 1473 ft 6 kts 170°
2026-05-06 13:55 48.35334 11.80130 1473 ft 6 kts 173°
2026-05-06 13:55 48.35291 11.80138 1473 ft 6 kts 174°
2026-05-06 13:56 48.35257 11.80144 1474 ft 5 kts 174°
2026-05-06 13:56 48.35219 11.80150 1474 ft 6 kts 173°
2026-05-06 13:56 48.35170 11.80158 1474 ft 7 kts 173°
2026-05-06 13:56 48.35136 11.80124 1474 ft 7 kts 256°
2026-05-06 13:57 48.35126 11.80034 1474 ft 9 kts 264°
2026-05-06 13:57 48.35118 11.79922 1475 ft 11 kts 264°
2026-05-06 13:57 48.35108 11.79793 1475 ft 13 kts 263°
2026-05-06 13:57 48.35099 11.79682 1475 ft 9 kts 263°
2026-05-06 13:58 48.35091 11.79582 1476 ft 9 kts 257°
2026-05-06 13:58 48.35042 11.79527 1476 ft 10 kts 179°
2026-05-06 13:58 48.34963 11.79538 1477 ft 12 kts 174°
2026-05-06 13:58 48.34870 11.79554 1477 ft 14 kts 174°
2026-05-06 13:59 48.34790 11.79506 1477 ft 14 kts 253°
2026-05-06 13:59 48.34774 11.79355 1478 ft 15 kts 263°
2026-05-06 13:59 48.34763 11.79196 1479 ft 15 kts 264°
2026-05-06 13:59 48.34750 11.79028 1480 ft 16 kts 263°
2026-05-06 14:00 48.34736 11.78855 1480 ft 17 kts 263°
2026-05-06 14:00 48.34722 11.78672 1481 ft 17 kts 264°
2026-05-06 14:00 48.34708 11.78485 1482 ft 18 kts 264°
2026-05-06 14:00 48.34693 11.78293 1482 ft 18 kts 263°
2026-05-06 14:01 48.34678 11.78096 1483 ft 19 kts 264°
2026-05-06 14:01 48.34662 11.77894 1483 ft 19 kts 263°
2026-05-06 14:01 48.34646 11.77682 1483 ft 20 kts 263°
2026-05-06 14:01 48.34630 11.77472 1484 ft 20 kts 263°
2026-05-06 14:02 48.34613 11.77262 1485 ft 20 kts 264°
2026-05-06 14:02 48.34597 11.77046 1485 ft 20 kts 263°
2026-05-06 14:02 48.34580 11.76826 1486 ft 21 kts 263°
2026-05-06 14:02 48.34563 11.76598 1486 ft 22 kts 264°
2026-05-06 14:03 48.34545 11.76363 1487 ft 22 kts 263°
2026-05-06 14:03 48.34526 11.76123 1488 ft 23 kts 263°
2026-05-06 14:03 48.34507 11.75878 1488 ft 23 kts 264°
2026-05-06 14:03 48.34487 11.75625 1489 ft 24 kts 263°
2026-05-06 14:04 48.34468 11.75373 1489 ft 24 kts 263°
2026-05-06 14:04 48.34446 11.75228 1490 ft 9 kts 214°
2026-05-06 14:04 48.34383 11.75224 1490 ft 9 kts 175°
2026-05-06 14:04 48.34304 11.75236 1490 ft 12 kts 173°
2026-05-06 14:05 48.34203 11.75253 1491 ft 16 kts 173°
2026-05-06 14:05 48.34103 11.75279 1491 ft 13 kts 150°
2026-05-06 14:05 48.34092 11.75427 1491 ft 26 kts 84°
2026-05-06 14:05 48.34142 11.76068 1489 ft 93 kts 83°
2026-05-06 14:06 48.34239 11.77337 1486 ft 149 kts 83°
2026-05-06 14:06 48.34366 11.79083 1583 ft 183 kts 83°
2026-05-06 14:06 48.34495 11.81001 2117 ft 185 kts 83°
2026-05-06 14:06 48.34646 11.82918 2687 ft 190 kts 81°
2026-05-06 14:07 48.34811 11.84876 3347 ft 188 kts 82°
2026-05-06 14:07 48.34976 11.86877 3652 ft 201 kts 82°
2026-05-06 14:07 48.35154 11.89003 3982 ft 213 kts 82°
2026-05-06 14:07 48.35347 11.91337 4175 ft 235 kts 82°
2026-05-06 14:08 48.35484 11.93849 4505 ft 250 kts 95°
2026-05-06 14:08 48.34835 11.96311 4872 ft 264 kts 128°
2026-05-06 14:08 48.33474 11.98178 5474 ft 269 kts 141°
2026-05-06 14:08 48.32005 11.99827 6161 ft 260 kts 143°
2026-05-06 14:09 48.30574 12.01417 6721 ft 259 kts 144°
2026-05-06 14:09 48.28926 12.02585 7206 ft 268 kts 169°
2026-05-06 14:09 48.27072 12.02732 7746 ft 274 kts 181°
2026-05-06 14:09 48.25143 12.02676 8344 ft 279 kts 181°
2026-05-06 14:10 48.23216 12.02562 8984 ft 281 kts 184°
2026-05-06 14:10 48.21257 12.02375 9682 ft 281 kts 182°
2026-05-06 14:10 48.19318 12.02300 10385 ft 280 kts 180°
2026-05-06 14:10 48.17397 12.02239 11059 ft 280 kts 183°
2026-05-06 14:11 48.15456 12.02073 11649 ft 282 kts 185°
2026-05-06 14:11 48.13489 12.01849 12240 ft 283 kts 185°
2026-05-06 14:11 48.11506 12.01717 12711 ft 290 kts 183°
2026-05-06 14:11 48.09503 12.01600 13199 ft 294 kts 184°
2026-05-06 14:12 48.07457 12.01251 13690 ft 298 kts 191°
2026-05-06 14:12 48.05425 12.00675 14223 ft 300 kts 194°
2026-05-06 14:12 48.03348 11.99872 14496 ft 313 kts 196°
2026-05-06 14:12 48.01262 11.99015 14901 ft 318 kts 197°
2026-05-06 14:13 47.99135 11.98125 15500 ft 318 kts 197°
2026-05-06 14:13 47.97002 11.97229 16125 ft 318 kts 197°
2026-05-06 14:13 47.94886 11.96340 16676 ft 318 kts 197°
2026-05-06 14:13 47.92733 11.95524 17253 ft 318 kts 193°
2026-05-06 14:14 47.90563 11.95028 17833 ft 318 kts 188°
2026-05-06 14:14 47.88364 11.94846 18380 ft 319 kts 184°
2026-05-06 14:14 47.86127 11.94747 18866 ft 320 kts 186°
2026-05-06 14:14 47.83895 11.94516 19303 ft 323 kts 187°
2026-05-06 14:15 47.81667 11.94257 19736 ft 325 kts 187°
2026-05-06 14:15 47.79389 11.93996 20188 ft 327 kts 187°
2026-05-06 14:15 47.77113 11.93741 20623 ft 329 kts 187°
2026-05-06 14:15 47.74840 11.93492 21028 ft 332 kts 187°
2026-05-06 14:16 47.72536 11.93241 21398 ft 335 kts 187°
2026-05-06 14:16 47.70202 11.92988 21810 ft 336 kts 187°
2026-05-06 14:16 47.67884 11.92742 22221 ft 338 kts 188°
2026-05-06 14:16 47.65534 11.92489 22579 ft 340 kts 188°
2026-05-06 14:17 47.63184 11.92240 22955 ft 342 kts 188°
2026-05-06 14:17 47.60787 11.91983 23324 ft 344 kts 188°
2026-05-06 14:17 47.58419 11.91731 23663 ft 347 kts 188°
2026-05-06 14:17 47.55990 11.91475 24072 ft 348 kts 188°
2026-05-06 14:18 47.53596 11.91221 24453 ft 349 kts 188°
2026-05-06 14:18 47.51162 11.90965 24783 ft 351 kts 189°
2026-05-06 14:18 47.48728 11.90707 25140 ft 352 kts 189°
2026-05-06 14:18 47.46297 11.90448 25475 ft 354 kts 189°
2026-05-06 14:19 47.43833 11.90186 25792 ft 355 kts 189°
2026-05-06 14:19 47.41358 11.89930 26094 ft 357 kts 189°
2026-05-06 14:19 47.38882 11.89667 26404 ft 359 kts 189°
2026-05-06 14:19 47.36383 11.89401 26663 ft 361 kts 189°
2026-05-06 14:20 47.33897 11.89142 26950 ft 363 kts 189°
2026-05-06 14:20 47.31359 11.88876 27241 ft 364 kts 189°
2026-05-06 14:20 47.28847 11.88610 27512 ft 366 kts 190°
2026-05-06 14:20 47.26299 11.88341 27775 ft 368 kts 189°
2026-05-06 14:21 47.23757 11.88077 28057 ft 369 kts 190°
2026-05-06 14:21 47.21209 11.87810 28319 ft 370 kts 190°
2026-05-06 14:21 47.18610 11.87539 28576 ft 372 kts 191°
2026-05-06 14:21 47.16054 11.87270 28853 ft 373 kts 190°
2026-05-06 14:22 47.13456 11.86998 29120 ft 374 kts 190°
2026-05-06 14:22 47.10864 11.86728 29380 ft 375 kts 190°
2026-05-06 14:22 47.08248 11.86459 29615 ft 376 kts 191°
2026-05-06 14:22 47.05650 11.86187 29870 ft 377 kts 191°
2026-05-06 14:23 47.03042 11.85845 30069 ft 377 kts 193°
2026-05-06 14:23 47.00462 11.85300 30283 ft 377 kts 195°
2026-05-06 14:23 46.97892 11.84557 30560 ft 375 kts 198°
2026-05-06 14:23 46.95330 11.83738 30769 ft 377 kts 198°
2026-05-06 14:24 46.92775 11.82934 30960 ft 379 kts 198°
2026-05-06 14:24 46.90209 11.82123 31205 ft 379 kts 198°
2026-05-06 14:24 46.87624 11.81307 31414 ft 381 kts 198°
2026-05-06 14:24 46.85033 11.80488 31627 ft 382 kts 198°
2026-05-06 14:25 46.82450 11.79669 31882 ft 382 kts 198°
2026-05-06 14:25 46.79850 11.78846 32132 ft 382 kts 198°
2026-05-06 14:25 46.77281 11.78039 32415 ft 381 kts 198°
2026-05-06 14:25 46.74686 11.77217 32709 ft 380 kts 198°
2026-05-06 14:26 46.72102 11.76403 32993 ft 380 kts 197°
2026-05-06 14:26 46.69540 11.75578 33264 ft 378 kts 199°
2026-05-06 14:26 46.67039 11.74493 33550 ft 373 kts 204°
2026-05-06 14:26 46.64662 11.73080 33861 ft 369 kts 208°
2026-05-06 14:27 46.62391 11.71354 34140 ft 366 kts 213°
2026-05-06 14:27 46.60257 11.69336 34348 ft 365 kts 218°
2026-05-06 14:27 46.58271 11.67044 34508 ft 366 kts 222°
2026-05-06 14:27 46.56456 11.64508 34663 ft 366 kts 227°
2026-05-06 14:28 46.54784 11.61707 34787 ft 368 kts 230°
2026-05-06 14:28 46.53161 11.58830 34893 ft 369 kts 230°
2026-05-06 14:28 46.49934 11.53060 34920 ft 371 kts 230°
2026-05-06 14:29 46.46700 11.47264 34914 ft 371 kts 230°
2026-05-06 14:29 46.43454 11.41449 34908 ft 370 kts 230°
2026-05-06 14:30 46.40236 11.35685 34904 ft 371 kts 230°
2026-05-06 14:30 46.36994 11.29894 34902 ft 370 kts 230°
2026-05-06 14:31 46.33751 11.24108 34902 ft 369 kts 230°
2026-05-06 14:31 46.30540 11.18382 34908 ft 370 kts 230°
2026-05-06 14:32 46.27317 11.12654 34912 ft 369 kts 230°
2026-05-06 14:32 46.24074 11.06896 34913 ft 369 kts 230°
2026-05-06 14:33 46.20835 11.01165 34910 ft 369 kts 229°
2026-05-06 14:33 46.17614 10.95479 34905 ft 369 kts 230°
2026-05-06 14:34 46.14366 10.89755 34903 ft 369 kts 230°
2026-05-06 14:34 46.11109 10.84025 34910 ft 370 kts 230°
2026-05-06 14:35 46.07866 10.78333 34901 ft 369 kts 229°
2026-05-06 14:35 46.04608 10.72619 34903 ft 369 kts 229°
2026-05-06 14:36 46.01368 10.66960 34899 ft 369 kts 229°
2026-05-06 14:36 45.98119 10.61291 34907 ft 369 kts 229°
2026-05-06 14:37 45.94858 10.55613 34908 ft 369 kts 229°
2026-05-06 14:37 45.91567 10.49930 34907 ft 371 kts 228°
2026-05-06 14:38 45.88257 10.44297 34910 ft 369 kts 229°
2026-05-06 14:38 45.84945 10.38655 34905 ft 370 kts 228°
2026-05-06 14:39 45.81644 10.33052 34918 ft 370 kts 228°
2026-05-06 14:39 45.78336 10.27435 34914 ft 371 kts 228°
2026-05-06 14:40 45.75011 10.21804 34919 ft 370 kts 228°
2026-05-06 14:40 45.71693 10.16194 34901 ft 371 kts 228°
2026-05-06 14:41 45.68367 10.10578 34907 ft 371 kts 228°
2026-05-06 14:41 45.65031 10.04958 34901 ft 371 kts 228°
2026-05-06 14:42 45.61713 9.99382 34893 ft 371 kts 228°
2026-05-06 14:42 45.58360 9.93760 34891 ft 372 kts 227°
2026-05-06 14:43 45.55023 9.88175 34888 ft 372 kts 228°
2026-05-06 14:43 45.51649 9.82542 34881 ft 372 kts 228°
2026-05-06 14:44 45.48296 9.76950 34871 ft 374 kts 228°
2026-05-06 14:45 45.43250 9.68555 34858 ft 374 kts 228°
2026-05-06 14:45 45.39882 9.62966 34864 ft 374 kts 228°
2026-05-06 14:46 45.36501 9.57365 34854 ft 374 kts 228°
2026-05-06 14:46 45.33110 9.51758 34855 ft 374 kts 228°
2026-05-06 14:47 45.29713 9.46158 34858 ft 375 kts 228°
2026-05-06 14:47 45.26318 9.40572 34852 ft 374 kts 228°
2026-05-06 14:48 45.22940 9.35021 34843 ft 375 kts 228°
2026-05-06 14:48 45.19549 9.29464 34850 ft 374 kts 227°
2026-05-06 14:49 45.16135 9.23876 34849 ft 374 kts 227°
2026-05-06 14:49 45.12752 9.18349 34836 ft 374 kts 227°
2026-05-06 14:50 45.09342 9.12793 34831 ft 374 kts 227°
2026-05-06 14:50 45.05935 9.07251 34826 ft 373 kts 227°
2026-05-06 14:51 45.02540 9.01742 34822 ft 373 kts 227°
2026-05-06 14:51 44.99138 8.96232 34821 ft 373 kts 228°
2026-05-06 14:52 44.95737 8.90732 34824 ft 373 kts 227°
2026-05-06 14:52 44.92333 8.85239 34815 ft 374 kts 227°
2026-05-06 14:53 44.88916 8.79736 34820 ft 374 kts 228°
2026-05-06 14:53 44.85479 8.74210 34835 ft 375 kts 228°
2026-05-06 14:54 44.82058 8.68722 34822 ft 375 kts 227°
2026-05-06 14:54 44.78626 8.63227 34836 ft 376 kts 228°
2026-05-06 14:55 44.75161 8.57689 34824 ft 376 kts 227°
2026-05-06 14:55 44.71730 8.52220 34840 ft 376 kts 227°
2026-05-06 14:56 44.68265 8.46703 34834 ft 376 kts 227°
2026-05-06 14:56 44.64815 8.41223 34841 ft 376 kts 228°
2026-05-06 14:57 44.61372 8.35761 34842 ft 377 kts 228°
2026-05-06 14:57 44.57896 8.30262 34844 ft 377 kts 227°
2026-05-06 14:58 44.54424 8.24772 34838 ft 377 kts 227°
2026-05-06 14:58 44.50963 8.19321 34850 ft 377 kts 227°
2026-05-06 14:59 44.47464 8.13815 34835 ft 377 kts 227°
2026-05-06 14:59 44.43978 8.08341 34847 ft 377 kts 227°
2026-05-06 15:00 44.40510 8.02903 34838 ft 377 kts 227°
2026-05-06 15:00 44.37037 7.97470 34838 ft 377 kts 227°
2026-05-06 15:01 44.33540 7.92011 34848 ft 377 kts 227°
2026-05-06 15:01 44.30072 7.86604 34847 ft 376 kts 227°
2026-05-06 15:02 44.26573 7.81163 34830 ft 377 kts 227°
2026-05-06 15:02 44.23071 7.75727 34857 ft 377 kts 227°
2026-05-06 15:03 44.19591 7.70332 34867 ft 377 kts 227°
2026-05-06 15:03 44.16266 7.64704 34855 ft 378 kts 232°
2026-05-06 15:04 44.13327 7.58629 34854 ft 380 kts 236°
2026-05-06 15:04 44.10796 7.52185 34858 ft 380 kts 240°
2026-05-06 15:05 44.08397 7.45662 34861 ft 380 kts 240°
2026-05-06 15:05 44.05998 7.39129 34871 ft 380 kts 240°
2026-05-06 15:06 44.03605 7.32619 34866 ft 380 kts 240°
2026-05-06 15:06 44.01197 7.26074 34879 ft 381 kts 240°
2026-05-06 15:07 43.98800 7.19568 34869 ft 380 kts 240°
2026-05-06 15:07 43.96390 7.13047 34885 ft 381 kts 240°
2026-05-06 15:08 43.93967 7.06502 34875 ft 381 kts 240°
2026-05-06 15:08 43.91555 7.00005 34879 ft 381 kts 240°
2026-05-06 15:09 43.89129 6.93487 34879 ft 381 kts 240°
2026-05-06 15:09 43.86692 6.86947 34885 ft 382 kts 240°
2026-05-06 15:10 43.84267 6.80462 34893 ft 382 kts 240°
2026-05-06 15:10 43.81823 6.73931 34897 ft 381 kts 240°
2026-05-06 15:11 43.79380 6.67427 34895 ft 382 kts 240°
2026-05-06 15:11 43.76932 6.60926 34893 ft 382 kts 240°
2026-05-06 15:12 43.74490 6.54450 34897 ft 382 kts 240°
2026-05-06 15:12 43.72026 6.47936 34903 ft 382 kts 241°
2026-05-06 15:13 43.69564 6.41436 34919 ft 382 kts 241°
2026-05-06 15:13 43.67113 6.34983 34905 ft 383 kts 240°
2026-05-06 15:14 43.64646 6.28507 34917 ft 382 kts 240°
2026-05-06 15:14 43.62185 6.22054 34895 ft 382 kts 240°
2026-05-06 15:15 43.59693 6.15541 34911 ft 383 kts 240°
2026-05-06 15:15 43.57218 6.09088 34922 ft 383 kts 240°
2026-05-06 15:16 43.54734 6.02619 34899 ft 383 kts 240°
2026-05-06 15:16 43.52238 5.96137 34913 ft 383 kts 240°
2026-05-06 15:17 43.49742 5.89672 34926 ft 383 kts 240°
2026-05-06 15:17 43.47245 5.83220 34916 ft 383 kts 240°
2026-05-06 15:18 43.44750 5.76783 34921 ft 384 kts 240°
2026-05-06 15:18 43.42232 5.70303 34915 ft 384 kts 240°
2026-05-06 15:19 43.39718 5.63849 34914 ft 384 kts 240°
2026-05-06 15:19 43.37203 5.57411 34922 ft 385 kts 240°
2026-05-06 15:20 43.34682 5.50965 34923 ft 384 kts 240°
2026-05-06 15:20 43.32154 5.44518 34932 ft 384 kts 240°
2026-05-06 15:21 43.29633 5.38106 34927 ft 384 kts 240°
2026-05-06 15:21 43.27097 5.31670 34938 ft 384 kts 239°
2026-05-06 15:22 43.24555 5.25228 34905 ft 385 kts 239°
2026-05-06 15:22 43.22010 5.18804 34934 ft 384 kts 240°
2026-05-06 15:23 43.19460 5.12371 34903 ft 385 kts 240°
2026-05-06 15:23 43.16903 5.05934 34937 ft 385 kts 240°
2026-05-06 15:24 43.14362 4.99553 34929 ft 384 kts 240°
2026-05-06 15:24 43.11803 4.93147 34941 ft 385 kts 240°
2026-05-06 15:25 43.09211 4.86783 34929 ft 385 kts 238°
2026-05-06 15:25 43.06239 4.80711 34928 ft 384 kts 233°
2026-05-06 15:26 43.02864 4.75090 34934 ft 385 kts 229°
2026-05-06 15:26 42.99082 4.69913 34950 ft 386 kts 224°
2026-05-06 15:27 42.95083 4.65059 34943 ft 385 kts 224°
2026-05-06 15:27 42.91081 4.60206 34960 ft 385 kts 224°
2026-05-06 15:28 42.87060 4.55353 34939 ft 385 kts 223°
2026-05-06 15:28 42.83075 4.50556 34959 ft 385 kts 224°
2026-05-06 15:29 42.79059 4.45735 34944 ft 386 kts 224°
2026-05-06 15:29 42.75042 4.40920 34957 ft 386 kts 223°
2026-05-06 15:30 42.71025 4.36117 34947 ft 386 kts 224°
2026-05-06 15:30 42.66990 4.31301 34947 ft 386 kts 223°
2026-05-06 15:31 42.62963 4.26502 34946 ft 385 kts 223°
2026-05-06 15:31 42.58950 4.21728 34966 ft 386 kts 223°
2026-05-06 15:32 42.54910 4.16931 34595 ft 387 kts 223°
2026-05-06 15:32 42.52886 4.14529 33990 ft 388 kts 223°
2026-05-06 15:32 42.50884 4.12159 33336 ft 388 kts 223°
2026-05-06 15:32 42.48852 4.09753 32670 ft 388 kts 223°
2026-05-06 15:33 42.46821 4.07352 32011 ft 388 kts 223°
2026-05-06 15:33 42.44785 4.04944 31337 ft 388 kts 223°
2026-05-06 15:33 42.42785 4.02586 30681 ft 387 kts 223°
2026-05-06 15:33 42.40765 4.00201 29993 ft 387 kts 223°
2026-05-06 15:34 42.38730 3.97801 29287 ft 386 kts 223°
2026-05-06 15:34 42.36735 3.95453 28598 ft 385 kts 223°
2026-05-06 15:34 42.34726 3.93086 27898 ft 384 kts 223°
2026-05-06 15:34 42.32715 3.90722 27197 ft 383 kts 223°
2026-05-06 15:35 42.30724 3.88382 26498 ft 382 kts 223°
2026-05-06 15:35 42.28719 3.86032 25797 ft 381 kts 223°
2026-05-06 15:35 42.26732 3.83703 25100 ft 380 kts 223°
2026-05-06 15:35 42.24755 3.81388 24406 ft 378 kts 223°
2026-05-06 15:36 42.22812 3.79118 24031 ft 369 kts 223°
2026-05-06 15:36 42.20898 3.76882 23941 ft 353 kts 223°
2026-05-06 15:36 42.19102 3.74788 23949 ft 337 kts 223°
2026-05-06 15:36 42.17337 3.72729 23948 ft 335 kts 223°
2026-05-06 15:37 42.15577 3.70675 23948 ft 335 kts 223°
2026-05-06 15:37 42.13802 3.68606 23948 ft 335 kts 223°
2026-05-06 15:37 42.12037 3.66548 23935 ft 335 kts 223°
2026-05-06 15:37 42.10315 3.64454 23940 ft 334 kts 228°
2026-05-06 15:38 42.08843 3.62076 23937 ft 333 kts 235°
2026-05-06 15:38 42.07640 3.59397 23934 ft 334 kts 242°
2026-05-06 15:38 42.06662 3.56575 23945 ft 334 kts 245°
2026-05-06 15:38 42.05721 3.53765 23934 ft 334 kts 245°
2026-05-06 15:39 42.04772 3.50909 23935 ft 334 kts 245°
2026-05-06 15:39 42.03822 3.48048 23942 ft 334 kts 245°
2026-05-06 15:39 42.02885 3.45227 23946 ft 333 kts 245°
2026-05-06 15:39 42.01932 3.42360 23941 ft 333 kts 245°
2026-05-06 15:40 42.00997 3.39553 23946 ft 334 kts 245°
2026-05-06 15:40 42.00052 3.36717 23940 ft 334 kts 245°
2026-05-06 15:40 41.99093 3.33840 23940 ft 334 kts 244°
2026-05-06 15:40 41.98151 3.31018 23955 ft 333 kts 244°
2026-05-06 15:41 41.97202 3.28180 23931 ft 333 kts 244°
2026-05-06 15:41 41.96253 3.25339 23939 ft 333 kts 244°
2026-05-06 15:41 41.95274 3.22558 23935 ft 333 kts 242°
2026-05-06 15:41 41.94114 3.19847 23936 ft 331 kts 238°
2026-05-06 15:42 41.92847 3.17348 23934 ft 316 kts 235°
2026-05-06 15:42 41.91604 3.14990 23930 ft 302 kts 235°
2026-05-06 15:42 41.90399 3.12714 23427 ft 307 kts 235°
2026-05-06 15:42 41.89137 3.10338 22680 ft 313 kts 235°
2026-05-06 15:43 41.87879 3.07970 21946 ft 320 kts 235°
2026-05-06 15:43 41.86568 3.05507 21209 ft 326 kts 235°
2026-05-06 15:43 41.85251 3.03036 20473 ft 329 kts 235°
2026-05-06 15:43 41.83940 3.00584 19736 ft 324 kts 236°
2026-05-06 15:44 41.82630 2.98131 18993 ft 322 kts 236°
2026-05-06 15:44 41.81337 2.95713 18255 ft 320 kts 236°
2026-05-06 15:44 41.80040 2.93289 17507 ft 319 kts 236°
2026-05-06 15:44 41.78760 2.90897 16809 ft 316 kts 236°
2026-05-06 15:45 41.77491 2.88530 16125 ft 313 kts 236°
2026-05-06 15:45 41.76243 2.86205 15448 ft 310 kts 236°
2026-05-06 15:45 41.75000 2.83890 14771 ft 308 kts 236°
2026-05-06 15:45 41.73764 2.81588 14195 ft 302 kts 236°
2026-05-06 15:46 41.72548 2.79329 13744 ft 297 kts 236°
2026-05-06 15:46 41.71341 2.77085 13289 ft 294 kts 236°
2026-05-06 15:46 41.70160 2.74894 12837 ft 293 kts 236°
2026-05-06 15:46 41.68966 2.72676 12389 ft 291 kts 236°
2026-05-06 15:47 41.67791 2.70501 11938 ft 289 kts 236°
2026-05-06 15:47 41.66624 2.68340 11489 ft 288 kts 236°
2026-05-06 15:47 41.65467 2.66196 11069 ft 285 kts 236°
2026-05-06 15:47 41.64381 2.64024 10934 ft 277 kts 242°
2026-05-06 15:48 41.63555 2.61669 10923 ft 277 kts 251°
2026-05-06 15:48 41.62926 2.59248 10945 ft 278 kts 253°
2026-05-06 15:48 41.62318 2.56784 10940 ft 277 kts 253°
2026-05-06 15:48 41.61722 2.54360 10948 ft 277 kts 253°
2026-05-06 15:49 41.61117 2.51905 10938 ft 278 kts 253°
2026-05-06 15:49 41.60509 2.49456 10925 ft 277 kts 253°
2026-05-06 15:49 41.59906 2.47035 10919 ft 276 kts 253°
2026-05-06 15:49 41.59299 2.44604 10638 ft 273 kts 253°
2026-05-06 15:50 41.58700 2.42209 10224 ft 274 kts 253°
2026-05-06 15:50 41.58109 2.39848 10011 ft 265 kts 253°
2026-05-06 15:50 41.57521 2.37567 9821 ft 256 kts 250°
2026-05-06 15:50 41.56797 2.35405 9565 ft 251 kts 244°
2026-05-06 15:51 41.55937 2.33422 9221 ft 250 kts 240°
2026-05-06 15:51 41.55016 2.31444 8753 ft 249 kts 239°
2026-05-06 15:51 41.54109 2.29502 8240 ft 249 kts 239°
2026-05-06 15:51 41.53200 2.27533 7717 ft 249 kts 239°
2026-05-06 15:52 41.52236 2.25623 7191 ft 249 kts 227°
2026-05-06 15:52 41.50785 2.24391 6655 ft 253 kts 198°
2026-05-06 15:52 41.49031 2.24290 6130 ft 257 kts 168°
2026-05-06 15:52 41.47424 2.25261 5638 ft 258 kts 150°
2026-05-06 15:53 41.46058 2.26812 5094 ft 261 kts 125°
2026-05-06 15:53 41.45219 2.28935 4596 ft 259 kts 114°
2026-05-06 15:53 41.44411 2.31042 4130 ft 252 kts 131°